Abraham Gonzalez, Mexico

3:03 AM CST on February 26, 2017 (GMT -0600)
Durango

Weather History for MMDO - March, 2014

Change the Weather History Date:

Sunday, March 23, 2014

  Actual Average Record
Temperature  
Mean Temperature 68 °F -  
Max Temperature 91 °F 80 °F 91 °F (2014)
Min Temperature 46 °F 45 °F 33 °F (2003)
Cooling Degree Days 4    
Growing Degree Days 18 (Base 50)    
Moisture  
Dew Point 31 °F    
Average Humidity 25    
Maximum Humidity 61    
Minimum Humidity 7    
Precipitation  
Precipitation 0.00 in - - ()
Sea Level Pressure  
Sea Level Pressure 30.02 in    
Wind  
Wind Speed 4 mph ()    
Max Wind Speed 20 mph    
Max Gust Speed -    
Visibility 12.0 miles    
Events      
Averages and records for this station are not official NWS values.
T = Trace of Precipitation, MM = Missing Value Source: Averaged Metar Reports

Daily Weather History Graph

Daily Weather History Graph

Search for Another Location

Airport or City:

Trip Planner

Search our weather history database for the weather conditions in past years. The results will help you decide how hot, cold, wet, or windy it might be!

Date:

Astronomy

Mar. 23, 2014 Rise Set
Actual Time 6:59 AM CST 7:10 PM CST
Civil Twilight 6:36 AM CST 7:33 PM CST
Nautical Twilight 6:09 AM CST 7:59 PM CST
Astronomical Twilight 5:43 AM CST 8:26 PM CST
Moon 12:59 AM CST (3/23) 12:13 PM CST (3/23)
Length of Visible Light 12h 56m
Length of Day
12h 11m
Waning Gibbous, 54% of the Moon is Illuminated
Mar 23
Waning Gibbous
Mar 23
Last Quarter
Mar 30
New
Apr 7
First Quarter
Apr 15
Full

Hourly Weather History & Observations

Time (CST) Temp. Dew Point Humidity Pressure Visibility Wind Dir Wind Speed Gust Speed Precip Events Conditions
2:50 AM 58 °F 36 °F 32% 29.81 in 6 mi WSW 2.2 mph - -  
3:55 AM 48.2 °F 32.0 °F 54% 30.26 in 10.0 mi South 3.5 mph - N/A   Scattered Clouds
5:50 AM 52 °F 34 °F 38% 29.91 in 6 mi WNW 2.2 mph - -   Clear
6:41 AM 41.0 °F 28.4 °F 61% 30.29 in 10.0 mi SSW 2.3 mph - N/A   Partly Cloudy
7:48 AM 46.4 °F 28.4 °F 50% 30.32 in 14.0 mi Calm Calm - N/A   Scattered Clouds
8:41 AM 55.4 °F 30.2 °F 38% 30.03 in 14.0 mi South 3.5 mph - N/A   Scattered Clouds
8:50 AM 55 °F 36 °F 36% 30.05 in 19 mi Calm Calm - -   Scattered Clouds
9:42 AM 64.4 °F 30.2 °F 28% 30.33 in 14.0 mi ENE 2.3 mph - N/A   Mostly Cloudy
10:42 AM 71.6 °F 28.4 °F 20% 30.32 in 14.0 mi Calm Calm - N/A   Mostly Cloudy
11:43 AM 77.0 °F 26.6 °F 16% 29.86 in 14.0 mi SE 4.6 mph - N/A   Mostly Cloudy
11:57 AM 80 °F 41 °F 15% 30.01 in 31 mi SE 2.2 mph - -   Partly Cloudy
12:40 PM 77.0 °F 24.8 °F 14% 30.26 in 14.0 mi ESE 4.6 mph - N/A   Mostly Cloudy
1:43 PM 80.6 °F 23.0 °F 12% 30.20 in 14.0 mi SSE 6.9 mph - N/A   Mostly Cloudy
2:47 PM 84.2 °F 21.2 °F 10% 29.63 in 14.0 mi South 2.3 mph - N/A   Mostly Cloudy
2:54 PM 88 °F 40 °F 10% 29.78 in 31 mi SSE 2.2 mph - -   Scattered Clouds
3:47 PM 84.2 °F 44.6 °F 25% 30.13 in 14.0 mi SSE 6.9 mph - N/A   Mostly Cloudy
4:46 PM 84.2 °F 12.2 °F 7% 30.12 in 14.0 mi SW 19.6 mph - N/A   Mostly Cloudy
5:45 PM 82.4 °F 17.6 °F 9% 29.81 in 14.0 mi SW 15.0 mph - N/A   Mostly Cloudy
5:59 PM 83 °F 39 °F 12% 29.67 in 31 mi SW 8.9 mph - -   Mostly Cloudy
6:42 PM 78.8 °F 17.6 °F 10% 30.16 in 14.0 mi WSW 9.2 mph - N/A   Mostly Cloudy
7:45 PM 75.2 °F 21.2 °F 13% 30.20 in 12.0 mi SW 11.5 mph - N/A   Mostly Cloudy
8:44 PM 73.4 °F 33.8 °F 23% 29.84 in 10.0 mi SW 8.1 mph - N/A   Mostly Cloudy
8:59 PM 73 °F 46 °F 27% 29.70 in 6 mi WSW 4.5 mph - -   Scattered Clouds
11:57 PM 68 °F 44 °F 30% 29.75 in 6 mi WSW 4.5 mph - -   Mostly Cloudy